Theta_e
337 337 336 336 335 336 336 337 339 338 338 337 336 337 337 339 337 338 339 339 340 341 340 340 338 335 334 333 334 334 333 334 334 334 334 334 335 335 334 335 334 334
335 336 335 335 334 334 334 336 338 339 338 339 338 338 340 339 338 338 337 337 338 339 339 340 338 335 335 335 337 335 333 331 331 332 335 333 335 334 331 331 337 335
334 334 334 333 333 333 334 335 336 337 338 339 341 340 338 339 338 338 337 337 337 337 339 340 336 333 334 334 336 334 332 332 334 333 333 335 333 330 333 336 333 336
332 333 332 333 334 333 335 334 335 334 337 337 339 340 339 338 337 337 337 337 336 336 338 339 338 336 334 334 334 334 333 336 337 337 335 335 334 333 334 334 334 333
331 331 332 332 333 334 334 333 333 334 334 337 339 339 338 337 335 334 336 336 336 336 336 338 339 336 332 331 335 336 336 336 336 335 334 334 332 333 336 335 331 330
331 330 331 332 333 333 333 333 334 334 335 336 338 338 339 337 335 334 335 335 335 335 335 335 336 336 334 333 335 335 335 335 335 334 334 333 333 336 335 334 332 330
329 331 331 332 333 333 333 333 334 334 334 336 337 337 337 336 334 333 334 335 335 334 335 335 336 336 335 335 334 334 335 335 334 333 332 332 332 332 332 333 333 331
328 330 331 332 332 333 332 332 333 334 333 333 333 334 336 336 335 335 335 337 336 335 336 336 336 335 334 334 333 332 334 334 334 333 333 332 333 332 331 333 331 332
327 328 329 330 331 331 332 332 332 332 333 332 332 332 334 335 335 336 337 335 335 336 334 335 335 334 334 334 333 333 332 333 332 332 332 333 333 333 330 331 332 334
326 327 328 329 329 330 331 332 334 333 333 331 330 333 332 334 335 336 337 336 336 334 335 335 335 335 334 333 333 333 332 332 332 332 332 333 334 333 331 331 332 333
324 325 326 328 329 329 330 330 332 332 333 332 332 331 332 332 333 336 337 335 334 332 334 335 335 335 334 334 334 333 334 333 332 332 332 334 336 335 332 331 333 335
322 323 323 324 326 329 329 329 330 330 330 331 330 330 331 332 333 334 335 333 335 335 336 334 336 335 334 334 335 334 334 333 334 333 333 335 335 335 332 332 333 334
319 320 321 322 324 327 329 329 328 329 328 329 330 329 329 330 332 331 330 333 336 336 336 337 336 335 335 334 332 331 330 330 331 334 335 335 334 332 333 332 334 334
318 319 321 322 323 324 326 328 328 329 329 329 329 329 329 329 330 331 332 334 334 335 336 337 336 335 334 332 331 330 331 332 333 335 335 333 331 331 332 334 335 334
317 319 320 322 324 325 325 326 327 328 329 329 329 330 331 330 331 330 328 330 333 335 335 337 335 332 336 332 332 332 330 329 334 333 331 331 330 331 334 335 335 335
316 318 319 321 322 324 325 326 326 327 328 328 328 329 330 329 329 329 329 329 331 331 332 332 330 331 328 318 319 326 329 330 332 332 331 331 332 332 334 335 334 335
315 317 319 320 320 321 323 324 325 326 327 327 328 328 329 329 328 328 329 330 329 329 330 329 329 330 315 307 310 312 326 329 331 332 334 334 334 334 333 334 335 335
314 316 318 319 320 319 319 320 322 324 325 325 326 327 329 330 329 327 327 328 329 328 328 328 327 313 302 303 307 309 315 330 329 328 332 334 334 334 334 334 335 335
312 314 316 318 318 318 317 316 316 319 322 324 324 326 327 326 326 327 327 328 327 326 326 327 324 300 297 300 303 306 309 319 332 332 334 334 334 333 334 333 333 332
310 312 313 315 316 316 315 313 311 312 314 318 324 326 325 326 326 325 325 326 326 326 326 326 322 300 295 298 301 303 306 314 332 335 334 334 333 333 333 333 333 331
309 310 312 314 315 314 313 311 309 308 309 311 314 317 317 316 316 317 317 318 321 324 324 323 315 295 294 296 298 301 305 312 333 333 330 331 331 331 331 332 332 331
308 309 311 313 313 312 310 309 307 307 306 307 309 310 311 313 313 314 315 317 319 321 317 313 306 294 295 296 298 301 308 328 330 330 329 328 329 328 325 329 330 330
308 308 309 310 311 310 309 308 306 306 305 306 306 306 306 306 307 308 309 312 312 312 311 310 309 298 296 297 299 302 314 328 327 326 325 325 326 327 326 327 328 327
308 308 309 309 309 308 308 308 307 307 306 305 304 303 302 302 302 301 302 304 304 306 308 308 308 299 295 297 298 300 315 324 322 321 320 318 315 316 317 315 312 311
309 308 307 307 308 309 308 307 307 307 307 306 305 304 302 301 300 299 299 300 301 301 301 303 305 301 295 295 295 299 315 321 320 318 314 311 312 312 312 311 310 305
309 308 307 306 307 309 309 308 308 307 307 306 305 303 301 301 300 298 297 298 299 299 299 300 301 301 297 294 296 298 302 315 315 313 310 309 311 312 310 310 309 308
Wind_Speed
7 7 7 6 6 6 7 8 8 8 8 7 8 8 8 7 7 8 8 8 9 9 9 8 8 7 7 10 10 9 10 10 7 6 9 10 9 10 10 8 9 9
8 8 7 7 7 6 7 9 9 8 9 9 8 8 8 8 8 8 9 9 9 9 8 8 7 7 7 7 8 8 7 9 9 9 10 14 10 8 9 13 9 7
8 9 9 9 7 8 8 8 8 8 8 8 8 8 8 8 8 9 9 10 9 10 10 8 7 8 8 10 8 6 6 11 13 12 11 10 8 10 10 7 9 11
9 9 9 9 9 8 8 8 7 7 7 7 7 7 7 7 7 9 9 10 10 10 10 10 10 9 9 9 11 11 12 11 9 9 8 6 3 3 7 7 2 4
9 9 9 9 9 9 8 8 8 8 8 8 7 7 8 7 8 8 9 10 10 10 11 10 9 9 8 7 8 7 9 8 8 8 8 7 5 7 2 2 6 8
10 10 10 9 9 9 9 9 9 9 9 9 9 8 8 9 9 9 10 10 10 10 10 10 10 9 10 10 9 8 8 8 8 10 8 8 7 7 5 4 7 9
10 10 10 10 10 9 9 9 8 8 8 9 8 9 8 9 10 11 11 10 11 11 11 10 10 9 9 8 8 8 8 9 9 9 9 8 8 7 6 9 10 12
12 11 10 10 10 10 9 9 8 7 7 7 9 9 9 9 11 10 11 11 12 11 11 11 10 10 10 9 10 10 9 7 9 10 10 10 10 10 10 5 8 9
11 11 11 11 11 10 10 9 7 7 6 7 8 9 9 10 10 11 11 12 12 11 11 11 10 10 10 10 11 11 11 9 10 11 11 11 11 10 9 9 12 10
11 11 12 12 11 9 10 9 7 7 7 7 9 9 9 9 11 11 11 11 10 11 11 11 11 10 10 11 11 12 11 11 11 10 11 11 11 11 9 7 10 9
12 11 11 12 11 10 10 9 8 7 6 8 9 8 9 9 10 11 10 11 10 12 12 11 11 11 11 11 9 10 11 11 11 11 10 10 10 10 9 10 11 10
12 11 11 12 12 11 10 9 8 7 7 7 8 9 9 10 10 10 9 12 12 12 11 11 11 10 11 10 10 6 7 9 8 10 10 10 10 8 8 9 10 11
13 12 12 11 11 11 10 9 8 7 6 7 8 9 8 8 11 8 10 12 11 11 11 12 10 10 11 9 6 7 6 8 10 10 10 9 8 9 8 8 10 11
13 13 12 12 11 10 10 9 8 7 7 6 7 8 9 9 10 9 9 9 10 10 10 10 10 9 10 9 8 9 9 8 10 10 10 8 7 7 9 12 11 10
13 13 12 12 12 11 9 8 8 8 8 8 7 8 8 9 7 7 11 11 10 8 9 7 8 9 8 7 7 8 7 11 10 10 11 9 9 11 11 9 10 9
13 13 12 11 12 12 10 8 7 7 8 8 8 8 7 8 6 3 6 9 9 8 7 4 4 4 6 10 8 8 10 10 9 9 9 10 11 10 10 10 10 9
13 13 13 12 11 11 11 11 9 7 7 8 8 8 8 8 9 7 6 6 7 8 8 6 5 4 2 11 14 18 12 8 9 7 7 10 10 10 10 10 9 8
12 13 13 13 13 12 12 12 11 8 8 7 8 8 7 7 8 9 8 8 6 7 7 7 6 4 5 9 9 8 8 10 10 9 10 10 10 10 9 9 9 7
13 13 13 13 13 13 11 12 12 11 10 7 7 7 7 8 7 7 8 8 6 7 7 5 3 6 6 10 9 9 5 6 8 10 10 10 10 10 10 9 8 7
13 13 13 13 13 13 12 12 11 11 10 10 7 6 6 6 3 2 2 3 5 5 7 5 4 6 7 9 9 9 6 6 8 8 7 7 7 7 7 8 8 8
14 14 14 13 14 13 13 13 12 11 11 9 8 8 7 7 7 5 5 5 2 3 5 4 2 5 6 8 9 9 6 6 6 5 6 6 6 6 4 5 6 6
14 14 13 13 13 13 13 14 13 12 11 10 8 8 8 7 7 7 6 5 5 3 4 3 3 2 4 5 10 10 9 6 6 6 6 6 7 8 6 3 4 6
13 14 13 13 13 13 14 13 13 12 11 9 9 10 10 9 8 8 7 8 8 8 8 6 5 2 6 1 6 11 8 7 8 7 6 7 6 7 8 6 5 8
13 13 13 13 13 13 13 12 12 10 10 9 10 10 9 8 6 9 9 8 10 10 8 8 5 6 9 6 5 8 2 8 7 8 7 7 7 7 8 8 11 13
12 12 13 13 13 12 12 12 12 11 9 9 9 10 10 7 7 10 8 10 10 11 17 12 7 8 12 10 10 8 6 7 8 8 8 7 6 7 7 7 8 11
11 12 12 12 12 12 12 12 11 10 11 10 10 10 9 10 9 10 13 11 9 10 11 10 10 10 12 13 11 12 12 10 9 9 9 8 7 7 8 8 9 8
Wind_Direction
287 283 280 275 267 264 257 249 242 236 230 226 228 232 230 229 233 236 231 226 223 217 211 204 196 186 209 216 197 200 186 207 202 213 201 208 215 215 214 217 228 211
288 281 278 275 272 268 268 268 257 239 227 218 217 228 230 224 222 226 226 227 223 224 219 208 193 192 204 217 195 192 188 202 208 218 199 211 214 207 226 217 211 217
292 290 282 279 276 272 263 258 260 258 247 229 220 224 227 229 230 223 225 227 225 222 217 209 192 200 212 212 203 195 205 208 200 198 209 206 216 219 215 208 207 209
291 286 286 282 275 264 257 251 250 255 257 247 229 224 226 225 231 237 230 223 227 219 210 207 200 193 212 214 204 195 202 204 197 193 198 195 197 242 214 195 61 331
295 292 285 281 279 274 262 256 248 239 243 251 245 226 221 215 223 230 239 227 226 222 212 208 203 188 189 233 223 202 199 198 187 188 196 197 178 212 184 115 167 221
297 292 289 286 280 280 279 265 252 248 244 243 241 230 219 218 223 224 228 224 224 221 213 210 208 199 188 197 207 209 199 196 185 185 192 185 180 187 184 187 210 215
307 299 292 288 286 284 280 273 262 253 248 244 241 236 223 218 221 227 229 222 218 219 214 209 207 202 194 190 197 205 200 203 194 185 176 182 178 174 198 209 212 214
309 306 297 293 294 291 285 280 268 257 246 242 245 246 236 228 224 220 225 222 217 213 212 208 201 199 195 199 190 197 199 202 193 184 179 178 174 176 205 187 239 219
314 308 307 300 296 294 290 276 264 262 256 246 237 239 241 235 229 225 221 220 220 212 209 205 199 196 199 201 199 195 194 189 198 193 183 181 185 188 199 196 208 211
323 319 313 307 300 297 296 298 282 263 262 258 247 242 241 236 231 227 220 216 218 215 208 205 198 194 198 202 199 197 191 189 188 187 187 182 185 186 191 210 213 203
327 323 318 313 308 305 303 297 287 270 243 251 258 252 248 241 234 230 219 212 210 214 208 202 198 192 192 198 196 206 197 191 186 184 184 183 183 184 192 202 207 201
330 327 323 318 314 305 298 296 292 287 275 246 247 256 258 252 241 234 226 216 208 209 206 207 199 187 186 192 189 184 205 194 186 183 182 184 182 191 196 204 201 204
333 327 322 317 314 312 308 295 287 282 274 262 244 240 247 259 252 244 239 222 208 204 209 201 188 184 185 178 167 164 209 208 196 182 182 179 180 191 191 209 213 199
334 330 327 325 320 311 304 305 298 283 272 260 247 240 235 234 249 247 242 231 217 211 208 200 187 182 182 174 173 179 185 209 188 184 178 169 194 197 212 199 203 200
335 335 332 328 321 318 309 303 305 297 282 268 249 242 237 235 231 227 228 226 228 215 211 193 184 187 177 178 186 164 179 205 197 191 181 176 183 200 197 192 198 199
337 339 339 333 337 332 330 315 297 290 284 276 270 262 249 241 235 227 241 233 224 215 210 163 174 175 187 190 144 176 195 196 189 198 187 177 188 186 186 195 191 191
343 343 342 346 347 341 335 329 319 309 288 280 273 260 254 232 222 226 219 219 205 208 190 183 183 204 234 192 179 185 174 212 182 189 187 180 183 183 182 184 185 176
344 343 346 349 351 351 346 340 327 304 292 282 270 264 252 232 223 221 213 208 200 178 166 166 174 136 160 223 176 194 200 196 179 178 200 178 180 181 177 175 172 157
348 347 347 350 352 354 353 350 343 336 328 282 265 277 258 235 228 210 216 203 166 160 170 170 164 151 192 209 181 179 213 223 186 175 183 175 176 180 176 173 167 160
353 351 353 353 354 357 360 359 354 348 344 345 317 270 258 258 247 103 88 161 181 195 178 174 202 161 194 214 178 168 176 236 181 182 170 160 161 164 173 163 164 157
358 356 358 358 1 4 3 3 358 355 358 357 0 14 23 45 52 52 33 33 64 160 156 143 57 88 218 192 174 164 162 194 172 158 160 151 139 128 121 148 147 150
2 360 0 3 6 7 7 6 1 3 4 5 15 25 33 47 50 54 57 61 44 45 71 63 68 73 221 200 174 153 148 152 149 129 131 138 134 132 111 130 134 140
6 5 8 9 10 11 10 9 8 6 10 16 35 42 41 29 28 35 33 42 44 45 53 36 29 54 81 289 212 154 155 129 125 120 108 112 134 138 147 139 136 150
10 10 13 15 16 16 13 12 12 15 20 27 41 47 41 32 27 33 27 41 46 43 34 60 2 27 62 52 10 2 107 122 115 103 94 99 87 69 79 65 32 33
15 15 15 14 18 21 18 16 18 22 28 35 43 53 53 38 43 62 35 40 38 43 41 42 14 6 42 46 33 34 79 104 105 106 88 57 62 76 72 70 61 34
14 20 20 20 18 21 23 23 25 27 29 38 44 48 53 55 55 70 61 46 33 34 42 37 31 13 15 48 47 55 66 77 81 91 90 91 73 65 67 59 61 55